Date,TemperatureHighF,TemperatureAvgF,TemperatureLowF,DewpointHighF,DewpointAvgF,DewpointLowF,HumidityHigh,HumidityAvg,HumidityLow,PressureMaxIn,PressureMinIn,WindSpeedMaxMPH,WindSpeedAvgMPH,GustSpeedMaxMPH,PrecipitationSumIn
2013-1-1,54.5,43.5,36.9,44.0,38.2,34.0,94,82,59,30.22,30.16,6,3,0,0.01
2013-1-2,61.4,43.8,35.6,43.0,34.9,30.0,86,72,41,30.16,30.04,6,2,0,0.00
2013-1-3,54.1,45.7,38.1,47.0,39.2,29.0,93,78,58,30.21,30.05,5,1,0,0.00
2013-1-4,56.7,45.0,39.0,50.0,41.7,36.0,96,88,72,30.22,30.12,6,2,0,0.01
2013-1-5,51.6,45.4,39.0,46.0,42.1,36.0,93,88,77,30.16,30.00,20,5,0,0.50
2013-1-6,53.2,47.4,43.6,47.0,43.7,41.0,93,87,76,30.17,30.06,21,6,0,0.01
2013-1-7,56.3,49.7,43.9,52.0,46.3,39.0,94,88,80,30.25,30.15,16,6,0,0.00
2013-1-8,54.5,48.5,42.8,50.0,46.7,41.0,95,93,83,30.20,30.07,14,5,0,0.00
2013-1-9,50.0,46.4,39.7,49.0,43.8,36.0,96,90,71,30.11,29.97,21,7,0,0.38
2013-1-10,47.6,41.7,36.8,41.0,36.9,34.0,92,83,70,30.19,30.03,24,7,0,0.05
2013-1-11,49.0,42.8,38.5,42.0,37.2,33.0,86,80,74,30.21,30.12,15,5,0,0.00
2013-1-12,50.1,42.3,34.7,39.0,32.9,26.0,83,70,55,30.20,30.09,16,6,0,0.00
2013-1-13,49.3,38.5,32.0,38.0,31.6,28.0,91,77,56,30.20,30.13,12,3,0,0.00
2013-1-14,54.2,40.4,32.1,42.0,33.5,27.0,89,77,51,30.34,30.20,7,2,0,0.00
2013-1-15,53.9,42.3,34.1,46.0,37.0,30.0,93,82,56,30.41,30.33,12,3,0,0.00
2013-1-16,51.6,41.9,35.9,47.0,39.1,34.0,95,90,80,30.38,30.21,6,2,0,0.01
2013-1-17,43.7,39.5,33.7,43.0,38.3,32.0,96,95,93,30.22,30.12,5,2,0,0.01
2013-1-18,51.3,40.1,32.6,46.0,38.4,32.0,97,93,81,30.17,30.09,6,2,0,0.02
2013-1-19,61.2,45.5,36.5,50.0,40.0,35.0,100,82,56,30.18,30.10,4,1,0,0.01
2013-1-20,66.3,49.9,41.8,50.0,34.7,27.0,72,57,36,30.15,30.06,4,2,0,0.00
2013-1-21,67.0,50.7,41.1,46.0,36.4,29.0,75,59,34,30.10,30.00,7,2,0,0.00
2013-1-22,67.5,55.1,42.7,48.0,33.5,23.0,68,47,23,30.00,29.87,11,2,0,0.00
2013-1-23,63.0,56.6,50.3,50.0,40.9,21.0,93,61,21,30.00,29.79,22,8,0,0.16
2013-1-24,59.6,53.3,50.5,53.0,49.9,47.0,93,88,77,30.14,30.00,7,2,0,0.00
2013-1-25,55.0,51.3,48.0,54.0,49.3,46.0,96,93,88,30.14,30.02,8,2,0,0.01
2013-1-26,52.2,48.2,42.8,50.0,44.2,38.0,96,86,74,30.06,29.98,18,8,0,0.02
2013-1-27,50.4,45.3,41.2,43.0,38.8,35.0,85,78,69,30.18,30.05,24,9,0,0.00
2013-1-28,51.4,46.6,41.8,46.0,42.4,39.0,92,85,79,30.32,30.16,32,8,0,0.01
2013-1-29,53.3,47.4,42.8,47.0,42.9,40.0,91,84,76,30.36,30.29,26,9,0,0.00
2013-1-30,54.9,46.1,39.8,48.0,41.6,38.0,93,84,71,30.32,30.22,12,4,0,0.00
2013-1-31,56.6,44.3,37.7,48.0,40.8,36.0,96,88,68,30.24,30.13,6,2,0,0.01
2013-2-1,59.8,48.9,39.9,49.0,43.4,38.0,94,82,63,30.14,30.06,7,2,0,0.01
2013-2-2,51.4,47.3,42.9,48.0,44.1,39.0,94,88,84,30.25,30.15,8,2,0,0.00
2013-2-3,53.2,47.6,41.3,47.0,43.8,39.0,94,86,77,30.22,30.12,18,6,0,0.00
2013-2-4,48.8,45.0,39.3,47.0,42.7,37.0,96,91,87,30.14,30.05,10,3,0,0.00
2013-2-5,53.4,47.7,43.7,48.0,44.1,40.0,92,87,81,30.15,30.04,10,3,0,0.00
2013-2-6,54.8,45.4,37.7,48.0,41.7,36.0,96,87,72,30.17,30.08,10,3,0,0.01
2013-2-7,54.5,46.3,38.7,47.0,42.3,36.0,96,86,65,30.08,29.95,14,3,0,0.23
2013-2-8,51.3,43.3,36.6,44.0,38.5,34.0,93,83,69,30.02,29.92,24,7,0,0.00
2013-2-9,54.6,43.6,37.3,44.0,35.3,29.0,89,73,56,30.04,29.99,12,5,0,0.00
2013-2-10,54.9,42.7,34.6,44.0,37.2,32.0,92,81,57,30.07,29.99,6,2,0,0.00
2013-2-11,54.2,44.1,37.3,48.0,40.2,34.0,94,86,74,30.16,30.04,11,3,0,0.00
2013-2-12,52.7,43.2,36.1,48.0,40.5,34.0,95,90,82,30.34,30.16,6,2,0,0.01
2013-2-13,55.5,45.1,37.2,49.0,42.2,36.0,96,90,79,30.30,30.19,16,4,0,0.01
2013-2-14,58.6,48.4,40.2,51.0,44.2,38.0,95,86,72,30.20,30.11,5,1,0,0.01
2013-2-15,68.4,53.2,42.6,50.0,40.9,37.0,90,66,38,30.21,30.14,5,2,0,0.00
2013-2-16,53.0,46.8,42.4,48.0,42.1,36.0,93,84,72,30.18,30.06,14,4,0,0.00
2013-2-17,53.8,45.9,40.7,46.0,40.3,37.0,92,81,65,30.07,29.96,17,7,0,0.00
2013-2-18,50.9,44.0,37.4,44.0,39.6,35.0,93,85,71,29.99,29.92,20,7,0,0.00
2013-2-19,47.1,43.3,39.6,43.0,38.2,33.0,94,83,70,29.92,29.74,19,7,0,0.21
2013-2-20,50.8,44.9,38.7,43.0,38.2,33.0,86,77,68,30.08,29.86,27,10,0,0.00
2013-2-21,52.0,45.5,40.3,44.0,39.6,35.0,90,80,67,30.18,30.08,22,8,0,0.00
2013-2-22,52.6,46.0,38.2,46.0,40.4,34.0,92,80,66,30.26,30.17,20,5,0,0.00
2013-2-23,50.1,45.7,38.9,45.0,38.6,34.0,92,77,62,30.29,30.18,32,11,0,0.00
2013-2-24,53.2,43.9,34.8,44.0,37.7,30.0,89,79,66,30.27,30.16,20,6,0,0.00
2013-2-25,53.5,46.3,40.2,47.0,40.5,35.0,89,80,71,30.27,30.20,19,7,0,0.00
2013-2-26,53.1,43.8,34.8,44.0,36.8,29.0,89,77,58,30.23,30.16,17,5,0,0.00
2013-2-27,55.3,45.8,35.6,47.0,41.1,32.0,93,84,64,30.34,30.19,15,4,0,0.01
2013-2-28,56.5,50.0,46.5,52.0,47.7,44.0,95,92,81,30.43,30.34,11,4,0,0.00
2013-3-1,53.2,47.3,42.7,50.0,45.7,41.0,96,94,85,30.43,30.22,13,4,0,0.02
2013-3-2,49.2,45.4,41.5,48.0,44.3,40.0,96,95,94,30.22,30.04,10,2,0,0.00
2013-3-3,53.8,48.1,45.7,49.0,45.7,43.0,96,91,81,30.06,30.02,14,5,0,0.00
2013-3-4,50.9,44.9,37.5,45.0,41.6,35.0,95,88,74,30.10,29.98,7,3,0,0.03
2013-3-5,55.5,46.7,34.4,48.0,42.8,32.0,95,86,69,30.00,29.62,28,10,0,1.18
2013-3-6,54.8,47.6,40.6,46.0,42.6,37.0,93,83,62,29.98,29.68,16,6,0,0.09
2013-3-7,55.9,46.4,38.8,44.0,39.4,35.0,89,77,55,29.93,29.85,13,4,0,0.00
2013-3-8,51.9,45.0,35.9,46.0,40.6,33.0,92,85,76,30.05,29.84,25,9,0,0.00
2013-3-9,56.5,47.5,40.0,48.0,43.0,38.0,93,84,68,30.31,30.06,13,6,0,0.00
2013-3-10,52.9,45.3,38.0,48.0,42.5,36.0,95,90,81,30.32,30.21,12,4,0,0.00
2013-3-11,54.7,47.4,39.8,50.0,44.6,38.0,95,90,83,30.23,30.11,17,6,0,0.00
2013-3-12,51.3,46.8,41.3,48.0,45.1,40.0,95,94,89,30.13,30.08,14,6,0,0.00
2013-3-13,56.1,45.7,42.1,52.0,44.2,41.0,100,94,81,30.14,30.05,12,3,0,0.00
2013-3-14,52.5,46.3,41.6,50.0,44.4,40.0,97,93,84,30.18,30.05,15,4,0,0.00
2013-3-15,55.6,49.2,45.2,51.0,46.6,43.0,100,91,82,30.15,30.04,16,7,0,0.00
2013-3-16,55.4,49.1,43.9,50.0,46.0,43.0,96,89,76,30.15,30.04,23,8,0,0.00
2013-3-17,53.9,47.2,41.8,46.0,42.6,38.0,94,84,72,30.15,30.05,17,6,0,0.00
2013-3-18,52.8,46.5,40.2,47.0,41.6,36.0,91,83,71,30.11,30.01,13,6,0,0.00
2013-3-19,54.9,48.8,41.1,53.0,43.5,36.0,92,82,57,30.08,29.96,21,3,0,0.17
2013-3-20,59.7,51.6,45.8,55.0,48.8,43.0,94,90,82,30.12,29.92,17,7,0,0.09
2013-3-21,52.4,45.9,40.0,44.0,39.1,35.0,90,77,65,30.14,30.07,26,10,0,0.00
2013-3-22,52.0,45.3,37.5,42.0,37.1,31.0,82,73,58,30.16,30.08,31,10,0,0.00
2013-3-23,54.1,45.9,37.2,46.0,38.9,32.0,85,77,65,30.12,30.05,17,7,0,0.00
2013-3-24,53.6,46.3,39.2,47.0,41.9,36.0,92,85,77,30.08,29.96,14,6,0,0.00
2013-3-25,53.9,46.4,40.6,46.0,42.3,38.0,92,86,74,30.00,29.93,12,4,0,0.00
2013-3-26,54.3,47.3,39.3,47.0,42.5,37.0,93,83,69,29.96,29.90,8,2,0,0.00
2013-3-27,59.2,51.9,47.1,53.0,48.8,44.0,94,89,77,29.95,29.87,12,3,0,0.01
2013-3-28,64.4,53.0,46.6,54.0,49.2,44.0,95,87,64,30.04,29.93,12,2,0,0.01
2013-3-29,55.4,51.1,47.5,52.0,48.9,46.0,96,92,86,30.04,29.95,7,2,0,0.00
2013-3-30,62.4,53.4,48.0,55.0,49.7,47.0,96,87,71,30.02,29.94,20,3,0,0.02
2013-3-31,63.6,54.8,48.5,57.0,51.1,46.0,96,87,72,29.98,29.93,18,3,0,0.03
2013-4-1,58.2,50.9,45.3,53.0,48.0,43.0,100,90,81,30.11,29.97,6,2,0,0.00
2013-4-2,53.0,48.5,44.0,50.0,46.6,42.0,96,93,88,30.16,30.07,13,4,0,0.00
2013-4-3,51.7,47.5,41.8,49.0,46.0,41.0,97,94,89,30.10,29.91,5,2,0,0.01
2013-4-4,58.6,53.6,47.8,56.0,52.0,47.0,96,94,89,30.04,29.85,16,6,0,0.56
2013-4-5,60.6,54.2,50.8,55.0,52.0,50.0,97,92,78,30.13,30.05,13,3,0,0.08
2013-4-6,57.7,53.8,51.1,55.0,51.7,49.0,96,92,86,30.14,30.05,8,2,0,0.08
2013-4-7,55.3,52.0,47.1,53.0,49.6,44.0,96,91,82,30.08,29.81,32,5,0,0.22
2013-4-8,53.8,49.0,43.6,46.0,42.1,37.0,88,77,62,30.08,29.87,30,16,0,0.00
2013-4-9,56.7,49.3,42.7,50.0,43.8,39.0,88,81,69,30.16,30.09,8,-724,0,0.00
2013-4-10,56.8,51.2,47.9,51.0,47.0,43.0,94,86,80,30.21,30.11,17,-642,0,0.00
2013-4-11,54.6,49.4,44.8,47.0,45.3,43.0,95,86,75,30.12,29.88,30,-624,0,0.00
2013-4-12,54.8,47.9,42.4,50.0,44.5,41.0,94,87,79,29.92,29.87,21,-272,0,0.00
2013-4-13,52.9,47.9,43.7,47.0,43.0,39.0,92,83,72,29.99,29.88,26,11,0,0.00
2013-4-14,52.0,46.6,41.9,45.0,40.8,36.0,93,80,72,29.98,29.84,17,7,0,0.00
2013-4-15,50.3,45.5,41.2,43.0,39.8,36.0,92,80,72,30.01,29.86,28,13,0,0.00
2013-4-16,53.0,46.3,39.1,45.0,39.7,34.0,88,78,62,30.18,30.01,32,10,0,0.00
2013-4-17,54.2,46.1,36.1,47.0,40.7,34.0,93,81,71,30.29,30.18,22,6,0,0.00
2013-4-18,54.9,47.3,39.3,48.0,42.7,36.0,94,84,74,30.27,30.19,20,6,0,0.00
2013-4-19,58.8,49.8,42.2,51.0,45.9,39.0,94,86,74,30.23,30.16,24,8,0,0.00
2013-4-20,56.2,48.9,44.3,49.0,45.3,42.0,95,87,76,30.17,30.02,15,8,0,0.00
2013-4-21,58.4,50.9,44.8,49.0,45.0,42.0,89,81,63,30.04,29.94,20,8,0,0.00
2013-4-22,59.1,51.3,43.7,50.0,45.8,41.0,93,82,67,29.95,29.80,10,4,0,0.00
2013-4-23,73.4,56.9,42.9,50.0,43.6,36.0,91,66,26,29.91,29.80,6,2,0,0.00
2013-4-24,58.0,47.6,38.1,50.0,44.2,36.0,95,88,73,29.91,29.79,13,4,0,0.00
2013-4-25,57.3,51.2,46.6,50.0,46.5,44.0,91,84,75,30.10,29.91,10,3,0,0.00
2013-4-26,52.1,49.3,47.5,48.0,46.6,46.0,93,90,86,30.20,30.07,12,4,0,0.00
2013-4-27,51.0,47.7,45.4,48.0,45.7,44.0,98,93,87,30.21,30.08,13,6,0,0.01
2013-4-28,62.5,51.9,44.5,50.0,46.6,43.0,95,83,64,30.09,29.91,18,8,0,0.01
2013-4-29,59.1,52.9,47.3,51.0,46.8,43.0,85,80,73,29.94,29.86,23,9,0,0.00
2013-4-30,59.6,50.7,45.4,45.0,42.8,41.0,88,75,54,29.91,29.85,24,12,0,0.00
2013-5-1,69.7,57.0,44.1,46.0,39.7,28.0,74,54,35,30.03,29.88,11,3,0,0.00
2013-5-2,76.9,60.2,46.3,53.0,42.3,34.0,85,54,27,30.10,30.03,5,1,0,0.00
2013-5-3,65.3,52.2,42.2,52.0,46.0,39.0,90,80,62,30.03,29.74,8,2,0,0.00
2013-5-4,70.3,56.7,46.6,55.0,48.7,43.0,90,75,57,29.74,29.46,9,2,0,0.00
2013-5-5,63.7,56.4,48.3,53.0,49.2,44.0,91,77,63,29.76,29.50,18,6,0,0.00
2013-5-6,62.3,57.5,52.8,56.0,51.3,48.0,89,80,72,29.91,29.75,11,3,0,0.02
2013-5-7,56.9,54.1,48.5,54.0,51.0,47.0,95,89,82,30.00,29.90,10,3,0,0.00
2013-5-8,55.9,51.1,48.4,51.0,48.3,46.0,96,90,79,30.10,29.99,16,6,0,0.00
2013-5-9,54.4,51.4,50.0,50.0,48.2,47.0,92,88,85,30.15,30.07,14,8,0,0.00
2013-5-10,55.6,50.8,48.6,51.0,48.5,47.0,95,91,84,30.17,30.11,19,9,0,0.00
2013-5-11,60.2,51.1,45.8,55.0,49.0,44.0,96,92,80,30.12,30.01,11,4,0,0.00
2013-5-12,63.9,54.5,50.1,56.0,51.7,48.0,96,90,74,30.15,30.02,14,6,0,0.00
2013-5-13,57.7,53.6,50.1,54.0,51.0,48.0,95,91,84,30.10,29.98,21,8,0,0.00
2013-5-14,58.7,52.3,46.8,51.0,47.8,44.0,93,85,73,30.01,29.95,23,10,0,0.01
2013-5-15,59.6,52.2,45.1,51.0,47.7,42.0,93,85,73,30.06,29.99,20,8,0,0.00
2013-5-16,59.9,54.3,51.0,54.0,51.6,48.0,96,90,78,30.02,29.95,13,5,0,0.00
2013-5-17,58.6,53.1,49.5,53.0,49.4,47.0,93,87,77,30.07,29.94,17,6,0,0.00
2013-5-18,61.3,53.7,45.1,52.0,48.6,43.0,94,83,66,30.16,30.05,21,8,0,0.00
2013-5-19,61.5,53.5,47.5,52.0,48.1,44.0,93,82,70,30.15,30.00,20,7,0,0.00
2013-5-20,58.2,50.9,43.6,51.0,47.1,42.0,95,87,75,30.01,29.95,17,6,0,0.00
2013-5-21,56.4,51.3,46.0,49.0,46.1,41.0,92,82,72,30.08,29.95,23,12,0,0.00
2013-5-22,55.0,48.9,42.5,46.0,41.6,36.0,87,76,69,30.08,29.95,20,11,0,0.00
2013-5-23,56.9,50.0,44.8,48.0,44.7,42.0,89,82,69,30.04,29.93,21,10,0,0.00
2013-5-24,55.6,49.7,43.2,49.0,44.3,40.0,90,82,73,30.02,29.97,23,9,0,0.00
2013-5-25,57.8,51.2,44.2,50.0,46.2,41.0,89,83,72,30.03,29.96,17,8,0,0.00
2013-5-26,59.6,54.6,48.6,55.0,51.2,46.0,95,88,76,30.11,30.02,11,5,0,0.00
2013-5-27,57.4,54.6,48.7,56.0,52.7,46.0,96,93,89,30.09,29.93,14,3,0,0.36
2013-5-28,60.1,55.0,52.5,57.0,53.4,51.0,100,94,82,29.99,29.90,10,3,0,0.06
2013-5-29,59.2,54.4,48.6,55.0,51.4,46.0,96,89,80,29.99,29.87,19,7,0,0.02
2013-5-30,59.2,52.1,45.5,51.0,47.3,42.0,94,84,71,30.03,29.95,21,8,0,0.01
2013-5-31,60.0,52.3,46.1,51.0,47.1,43.0,89,82,72,30.06,29.98,16,7,0,0.00
2013-6-1,62.9,54.3,47.8,52.0,48.2,44.0,92,80,62,30.00,29.87,26,10,0,0.00
2013-6-2,59.4,53.2,48.6,52.0,49.3,46.0,95,87,75,29.87,29.64,19,10,0,0.00
2013-6-3,64.1,54.2,45.6,55.0,49.9,44.0,95,86,71,29.83,29.64,13,4,0,0.00
2013-6-4,61.8,54.1,48.9,54.0,50.5,48.0,96,88,74,29.93,29.80,16,4,0,0.00
2013-6-5,55.9,51.5,49.4,51.0,49.3,48.0,96,92,83,29.95,29.89,9,3,0,0.01
2013-6-6,55.1,51.1,48.0,52.0,49.1,47.0,96,93,87,29.91,29.83,15,4,0,0.00
2013-6-7,66.1,55.5,48.0,54.0,50.2,47.0,96,84,59,29.85,29.73,14,5,0,0.00
2013-6-8,64.3,56.2,49.3,55.0,51.3,47.0,93,84,71,29.74,29.68,7,3,0,0.00
2013-6-9,56.4,53.5,49.0,53.0,51.2,47.0,95,92,87,29.85,29.74,6,2,0,0.00
2013-6-10,53.8,52.0,50.3,52.0,50.3,49.0,96,94,87,29.93,29.79,7,2,0,0.03
2013-6-11,60.2,54.5,49.2,53.0,49.7,46.0,94,84,72,29.98,29.89,21,7,0,0.00
2013-6-12,58.9,52.6,47.6,51.0,47.8,44.0,90,84,74,30.05,29.93,25,12,0,0.00
2013-6-13,59.3,52.5,46.7,51.0,47.7,45.0,92,84,71,30.14,30.04,26,10,0,0.00
2013-6-14,61.3,52.8,46.3,51.0,47.7,44.0,92,83,67,30.03,29.84,18,7,0,0.00
2013-6-15,56.1,51.6,46.8,52.0,48.8,45.0,94,90,84,30.00,29.83,15,8,0,0.00
2013-6-16,61.5,53.6,44.3,54.0,49.7,42.0,96,87,74,30.10,29.99,15,6,0,0.00
2013-6-17,65.0,55.7,48.3,57.0,52.1,46.0,94,88,74,30.09,30.01,12,5,0,0.00
2013-6-18,61.7,55.0,50.5,55.0,51.8,49.0,94,89,77,30.02,29.98,15,7,0,0.00
2013-6-19,61.2,54.2,46.6,54.0,50.1,45.0,93,86,77,30.07,29.99,20,8,0,0.00
2013-6-20,60.9,54.0,46.5,53.0,49.1,44.0,92,84,73,30.04,29.97,19,7,0,0.00
2013-6-21,61.4,53.5,47.1,54.0,49.3,45.0,93,85,75,30.00,29.95,19,7,0,0.00
2013-6-22,64.5,56.0,48.3,56.0,51.0,45.0,94,84,70,29.95,29.86,19,8,0,0.00
2013-6-23,62.2,57.4,54.2,61.0,56.1,53.0,97,95,93,29.86,29.75,11,3,0,0.17
2013-6-24,61.8,57.3,53.2,57.0,55.0,52.0,97,92,79,29.79,29.74,18,4,0,0.09
2013-6-25,65.0,60.9,58.6,63.0,59.1,56.0,96,94,89,29.89,29.75,17,6,0,0.36
2013-6-26,75.2,65.0,58.9,67.0,61.2,57.0,96,88,72,30.01,29.87,15,4,0,0.00
2013-6-27,69.2,60.0,53.0,63.0,56.8,52.0,96,89,78,30.08,29.98,15,4,0,0.00
2013-6-28,66.1,59.4,53.6,60.0,55.6,52.0,96,87,76,30.02,29.92,15,5,0,0.00
2013-6-29,71.6,59.1,54.6,59.0,54.2,52.0,92,84,65,29.91,29.87,7,3,0,0.00
2013-7-5,60.7,51.0,51.0,52.0,38.6,-99.9,90,76,73,29.72,0.00,16,-67,0,0.00
2013-7-6,60.0,52.9,47.9,53.0,49.5,46.0,94,88,77,29.76,29.69,8,3,0,0.00
2013-7-7,58.7,53.0,49.0,54.0,50.2,47.0,95,90,81,29.81,29.73,8,3,0,0.00
2013-7-8,60.3,52.6,48.9,55.0,50.4,48.0,96,92,80,29.93,29.80,9,4,0,0.01
2013-7-9,58.6,51.5,47.0,54.0,49.8,46.0,97,94,85,30.00,29.91,5,2,0,0.00
2013-7-10,57.8,50.6,43.8,53.0,48.7,43.0,97,93,83,29.95,29.88,8,2,0,0.01
2013-7-11,59.1,52.0,46.2,53.0,49.4,44.0,96,91,77,29.90,29.83,15,3,0,0.01
2013-7-12,60.0,51.8,44.6,52.0,48.7,43.0,96,89,75,29.91,29.84,15,4,0,0.00
2013-7-13,58.2,52.1,44.5,52.0,48.8,43.0,96,88,80,29.93,29.84,11,4,0,0.00
2013-7-14,56.3,50.7,44.4,52.0,48.8,42.0,96,93,85,29.96,29.87,8,2,0,0.00
2013-7-15,60.2,52.2,48.1,54.0,49.9,47.0,97,92,78,29.88,29.80,15,4,0,0.00
2013-7-16,64.8,56.4,50.7,57.0,52.8,49.0,95,88,74,29.99,29.80,11,3,0,0.01
2013-7-17,58.9,55.2,51.7,55.0,52.9,50.0,94,91,84,30.07,29.98,13,6,0,0.01
2013-7-18,56.8,51.9,46.1,53.0,49.6,45.0,96,92,87,30.01,29.92,13,5,0,0.00
2013-7-19,56.0,52.6,49.9,52.0,50.4,48.0,96,92,85,29.92,29.84,15,7,0,0.00
2013-7-20,57.9,52.1,49.5,52.0,49.9,48.0,96,92,81,29.84,29.71,14,8,0,0.00
2013-7-21,57.3,51.0,48.2,52.0,49.1,47.0,96,93,82,29.82,29.72,7,3,0,0.00
2013-7-22,58.4,51.9,48.4,52.0,49.4,47.0,96,91,78,29.93,29.82,14,4,0,0.00
2013-7-23,60.3,53.5,49.1,56.0,51.2,48.0,96,91,82,29.96,29.89,5,1,0,0.00
2013-7-24,60.4,55.0,50.7,55.0,52.3,49.0,96,90,82,29.96,29.88,10,3,0,0.00
2013-7-25,58.4,52.7,49.4,54.0,50.8,48.0,96,93,84,29.97,29.87,8,3,0,0.00
2013-7-26,59.4,53.1,48.6,55.0,51.0,48.0,97,92,82,30.05,29.96,10,3,0,0.00
2013-7-27,60.1,53.7,49.2,55.0,51.4,48.0,97,92,81,29.98,29.83,10,3,0,0.00
2013-7-28,57.6,52.7,49.8,53.0,50.5,48.0,96,92,82,29.84,29.75,7,3,0,0.00
2013-7-29,58.4,53.1,51.1,54.0,51.2,50.0,96,93,86,29.97,29.78,13,4,0,0.00
2013-7-30,56.2,52.8,50.5,53.0,51.0,49.0,96,93,88,30.07,29.96,11,3,0,0.00
2013-7-31,63.6,55.4,48.2,55.0,51.7,47.0,96,88,74,30.06,29.97,17,5,0,0.00
2013-8-1,62.9,56.0,49.7,56.0,52.4,48.0,95,88,77,30.06,29.98,16,7,0,0.00
2013-8-2,61.1,55.0,49.7,54.0,51.5,48.0,95,88,77,29.97,29.89,12,6,0,0.00
2013-8-3,56.8,52.5,50.5,53.0,50.6,49.0,96,93,86,29.94,29.86,12,4,0,0.00
2013-8-4,57.7,52.9,50.3,54.0,50.9,49.0,96,93,84,29.96,29.88,7,3,0,0.00
2013-8-5,59.3,53.5,49.2,53.0,50.8,48.0,96,91,79,29.97,29.92,12,3,0,0.01
2013-8-6,60.9,54.7,50.5,55.0,52.0,49.0,96,90,80,29.99,29.92,7,2,0,0.00
2013-8-7,66.8,59.1,53.9,57.0,54.3,52.0,94,84,69,30.01,29.96,16,4,0,0.00
2013-8-8,58.9,55.0,51.0,54.0,52.3,49.0,95,90,80,29.98,29.91,12,5,0,0.00
2013-8-9,61.2,55.0,48.5,55.0,52.3,47.0,95,90,79,29.95,29.87,8,2,0,0.00
2013-8-10,63.6,56.4,49.2,58.0,53.3,47.0,95,89,81,30.00,29.93,10,4,0,0.00
2013-8-11,59.3,54.5,52.1,55.0,52.8,51.0,97,94,85,29.97,29.90,11,4,0,0.00
2013-8-12,60.9,54.0,45.9,55.0,51.1,45.0,96,90,80,29.96,29.88,13,4,0,0.00
2013-8-13,64.0,56.3,48.9,56.0,52.3,47.0,95,87,75,29.97,29.91,20,6,0,0.00
2013-8-14,71.6,60.6,49.9,63.0,55.8,47.0,93,84,66,29.96,29.90,16,6,0,0.00
2013-8-15,73.7,65.7,62.4,65.0,62.0,60.0,95,88,74,29.92,29.87,12,6,0,0.00
2013-8-16,66.9,61.7,58.6,62.0,58.9,55.0,96,90,81,29.97,29.87,15,6,0,0.00
2013-8-17,67.2,60.4,55.0,60.0,56.7,53.0,95,87,73,29.97,29.85,15,6,0,0.00
2013-8-18,63.6,58.4,53.8,57.0,54.5,51.0,95,87,78,29.84,29.74,11,5,0,0.00
2013-8-19,68.1,58.1,54.5,59.0,54.6,52.0,93,88,72,29.86,29.73,8,3,0,0.00
2013-8-20,73.7,61.1,53.9,62.0,56.5,52.0,95,85,67,29.83,29.77,11,3,0,0.00
2013-8-21,66.0,59.7,56.2,58.0,55.8,54.0,95,87,74,29.88,29.82,12,3,0,0.00
2013-8-22,64.5,58.4,54.9,56.0,54.4,53.0,96,87,73,29.93,29.85,12,3,0,0.00
2013-8-23,61.4,56.3,53.1,56.0,53.3,51.0,95,90,81,29.90,29.81,15,7,0,0.00
2013-8-24,62.8,56.1,49.7,57.0,53.5,48.0,96,91,82,29.86,29.79,10,3,0,0.00
2013-8-25,65.9,59.0,54.4,61.0,56.3,53.0,95,91,82,29.90,29.82,8,3,0,0.00
2013-8-26,68.1,58.5,49.9,60.0,54.8,49.0,97,88,74,29.98,29.89,14,4,0,0.00
2013-8-27,71.2,60.7,55.0,62.0,56.9,52.0,95,87,73,29.89,29.80,12,5,0,0.00
2013-8-28,71.7,63.0,55.8,65.0,59.8,54.0,96,89,77,29.89,29.78,6,2,0,0.00
2013-8-29,70.2,63.5,58.6,63.0,60.7,57.0,95,90,78,30.02,29.88,8,3,0,0.02
2013-8-30,69.1,62.4,57.5,63.0,59.7,56.0,96,91,81,30.02,29.93,19,6,0,0.01
2013-8-31,66.8,59.3,53.1,60.0,56.8,52.0,96,91,79,29.94,29.87,13,6,0,0.00
2013-9-1,70.6,59.0,47.6,63.0,55.5,46.0,97,89,74,29.91,29.86,8,3,0,0.01
2013-9-2,71.0,64.5,55.9,64.0,60.3,53.0,94,86,76,29.90,29.84,9,3,0,0.00
2013-9-3,70.4,61.4,52.3,63.0,57.1,50.0,93,86,74,29.97,29.89,10,5,0,0.00
2013-9-4,70.8,64.1,60.4,64.0,59.7,57.0,91,85,75,30.00,29.93,16,6,0,0.00
2013-9-5,70.0,62.7,56.9,61.0,58.0,54.0,92,85,72,30.01,29.92,14,6,0,0.00
2013-9-6,73.5,61.2,53.3,57.0,54.4,51.0,93,80,55,29.98,29.81,13,5,0,0.00
2013-9-7,67.7,57.3,51.0,57.0,53.3,49.0,94,86,68,29.84,29.78,15,3,0,0.00
2013-9-8,62.9,54.3,49.7,56.0,51.7,48.0,96,91,78,29.83,29.73,8,2,0,0.00
2013-9-9,63.8,55.5,49.5,58.0,52.2,48.0,95,89,75,29.76,29.66,6,2,0,0.00
2013-9-10,71.4,59.6,48.8,61.0,55.5,48.0,96,87,70,29.81,29.66,20,5,0,0.01
2013-9-11,73.6,63.8,56.2,62.0,58.2,54.0,93,83,66,29.91,29.82,18,5,0,0.00
2013-9-12,64.0,59.9,55.9,59.0,57.2,54.0,95,91,82,29.93,29.85,16,6,0,0.00
2013-9-13,62.4,57.0,53.7,57.0,54.8,52.0,96,92,83,29.87,29.77,19,7,0,0.00
2013-9-14,63.9,58.1,54.4,58.0,55.2,53.0,96,90,79,29.79,29.73,16,6,0,0.00
2013-9-15,70.7,61.8,56.1,58.0,55.3,52.0,90,80,64,29.82,29.74,14,4,0,0.00
2013-9-16,67.2,59.4,52.4,58.0,54.8,50.0,93,85,71,29.88,29.79,17,5,0,0.00
2013-9-17,64.2,58.6,54.1,56.0,54.2,50.0,93,85,73,29.91,29.79,28,11,0,0.00
2013-9-18,65.0,57.2,51.1,55.0,50.9,47.0,89,80,68,29.90,29.82,17,6,0,0.00
2013-9-19,65.2,54.8,45.7,56.0,49.6,43.0,94,82,67,29.83,29.75,15,5,0,0.00
2013-9-20,70.8,61.9,54.8,64.0,57.5,48.0,95,85,73,29.78,29.71,11,4,0,0.18
2013-9-21,66.0,59.8,53.4,62.0,56.7,51.0,96,89,75,29.84,29.68,12,4,0,0.68
2013-9-22,66.3,58.0,49.7,57.0,53.6,48.0,96,85,71,29.97,29.84,9,3,0,0.01
2013-9-23,71.2,63.3,57.8,64.0,58.3,52.0,92,84,75,29.98,29.91,12,4,0,0.00
2013-9-24,67.1,60.6,54.8,59.0,54.7,50.0,92,81,73,29.98,29.91,16,6,0,0.00
2013-9-25,62.1,56.7,52.1,53.0,50.1,43.0,91,79,66,29.92,29.85,22,8,0,0.00
2013-9-26,62.9,54.9,45.7,52.0,46.2,41.0,83,73,61,29.98,29.86,25,8,0,0.00
2013-9-27,66.2,53.5,43.5,52.0,46.1,40.0,92,77,55,30.07,29.99,17,4,0,0.00
2013-9-28,67.2,57.7,46.4,58.0,52.2,42.0,91,82,71,30.04,29.98,10,3,0,0.00
2013-9-29,65.6,62.0,60.2,63.0,59.9,56.0,96,93,83,30.01,29.96,12,6,0,0.08
2013-9-30,69.7,60.8,53.9,62.0,56.6,48.0,97,86,70,30.00,29.93,14,6,0,0.09
2013-10-1,63.1,56.1,49.4,55.0,49.6,46.0,92,79,70,30.01,29.94,23,8,0,0.00
2013-10-2,61.8,55.1,50.4,52.0,47.3,44.0,85,75,65,30.07,29.93,25,9,0,0.00
2013-10-3,60.9,55.1,49.8,50.0,45.3,42.0,80,70,60,30.10,30.02,24,9,0,0.00
2013-10-4,77.4,59.9,46.8,47.0,38.2,30.0,71,47,24,30.06,29.98,13,4,0,0.00
2013-10-5,76.6,58.6,51.4,41.0,17.8,-99.9,49,26,4,30.12,30.03,5,2,0,0.00
2013-10-6,80.0,64.1,54.1,44.0,32.3,27.0,47,33,15,30.04,29.93,7,3,0,0.00
2013-10-7,64.8,55.0,46.2,51.0,42.3,32.0,85,64,39,29.95,29.89,19,5,0,0.00
2013-10-8,60.8,53.1,47.3,49.0,46.5,43.0,86,78,64,29.90,29.76,19,8,0,0.00
2013-10-9,60.3,52.3,45.8,47.0,45.1,41.0,89,77,57,29.76,29.65,22,8,0,0.00
2013-10-10,59.9,49.4,42.9,50.0,44.4,40.0,91,83,70,29.95,29.73,10,3,0,0.00
2013-10-11,56.0,46.6,40.6,50.0,43.9,39.0,95,90,80,30.05,29.95,9,2,0,0.00
2013-10-12,58.5,50.4,41.8,49.0,45.7,40.0,94,84,69,29.98,29.92,19,5,0,0.01
2013-10-13,61.0,49.1,41.8,50.0,44.3,39.0,96,84,63,30.01,29.91,12,3,0,0.00
2013-10-14,66.5,53.1,43.6,50.0,42.8,38.0,88,70,46,30.06,29.98,5,1,0,0.00
2013-10-15,71.5,55.3,45.2,49.0,41.2,37.0,76,61,36,29.98,29.92,4,1,0,0.00
2013-10-16,73.3,56.6,46.1,49.0,37.4,33.0,68,51,27,30.03,29.93,5,1,0,0.00
2013-10-17,61.3,52.5,46.5,52.0,42.2,33.0,93,70,41,30.04,29.96,12,3,0,0.00
2013-10-18,50.8,47.4,44.0,47.0,45.3,42.0,95,92,86,30.01,29.95,9,2,0,0.00
2013-10-19,50.6,45.5,40.2,48.0,44.2,39.0,96,94,90,30.05,29.98,9,3,0,0.00
2013-10-20,50.7,46.3,43.4,49.0,45.3,42.0,96,95,93,30.00,29.91,12,3,0,0.00
2013-10-21,50.8,47.0,43.8,49.0,45.9,43.0,96,96,93,29.97,29.90,6,2,0,0.01
2013-10-22,52.1,47.4,43.4,50.0,46.4,42.0,100,96,92,29.98,29.90,10,2,0,0.01
2013-10-23,50.1,46.8,43.8,49.0,45.8,43.0,100,96,94,29.93,29.89,10,3,0,0.00
2013-10-24,55.9,50.3,45.5,51.0,47.3,44.0,97,90,78,30.06,29.91,9,2,0,0.01
2013-10-25,59.2,50.2,43.2,51.0,46.4,41.0,96,87,71,30.14,30.05,11,3,0,0.00
2013-10-26,53.5,47.5,42.6,49.0,45.9,41.0,96,94,84,30.11,30.00,11,3,0,0.00
2013-10-27,56.1,50.0,44.9,51.0,47.5,44.0,96,91,79,30.01,29.68,23,-660,0,0.01
2013-10-28,58.0,50.7,43.4,51.0,46.9,41.0,94,87,74,29.77,29.65,13,-639,0,0.00
2013-10-29,57.2,23.1,42.9,51.0,-28.0,-99.9,96,46,78,29.94,0.00,6,-895,0,0.00
2013-10-30,58.4,17.1,40.8,50.0,-48.7,-99.9,91,30,70,30.10,0.00,9,-883,0,0.00
2013-10-31,60.0,49.4,40.6,51.0,44.5,38.0,94,83,68,30.12,30.04,8,-377,0,0.00
2013-11-1,67.3,51.5,44.1,53.0,47.0,43.0,94,86,50,30.09,29.97,7,-9,0,0.00
2013-11-2,60.0,51.0,43.2,55.0,46.8,41.0,96,86,69,30.02,29.95,24,7,0,0.00
2013-11-3,54.1,50.1,47.9,46.0,40.6,35.0,83,70,58,30.09,29.95,23,10,0,0.00
2013-11-4,56.8,50.0,42.7,47.0,40.6,35.0,87,71,57,30.08,29.92,30,8,0,0.00
2013-11-5,64.0,51.5,41.2,52.0,45.3,37.0,94,80,53,30.19,30.08,18,5,0,0.00
2013-11-6,64.5,53.8,46.5,56.0,49.3,45.0,96,85,68,30.20,30.09,5,1,0,0.00
2013-11-7,62.9,53.8,48.4,55.0,49.9,44.0,93,86,75,30.14,30.06,12,4,0,0.00
2013-11-8,59.0,51.6,42.4,54.0,48.3,41.0,95,89,76,30.08,29.93,11,4,0,0.00
2013-11-9,66.8,52.0,42.4,54.0,46.0,41.0,95,81,56,29.97,29.91,5,1,0,0.00
2013-11-10,61.2,50.5,42.6,51.0,45.9,41.0,94,84,69,30.04,29.93,15,4,0,0.00
2013-11-11,62.0,51.8,41.1,52.0,46.2,39.0,95,82,66,30.12,29.99,11,3,0,0.01
2013-11-12,66.4,58.0,50.5,55.0,51.2,47.0,91,78,68,30.23,30.11,7,2,0,0.00
2013-11-13,59.3,52.4,46.6,55.0,50.5,45.0,96,93,84,30.24,30.08,12,4,0,0.00
2013-11-14,57.4,52.1,46.7,51.0,49.2,44.0,96,90,78,30.11,29.92,17,7,0,0.00
2013-11-15,56.4,49.1,44.1,48.0,43.7,41.0,91,82,70,29.92,29.73,22,6,0,0.00
2013-11-16,58.1,50.2,42.0,52.0,45.1,39.0,93,83,70,29.89,29.78,8,4,0,0.00
2013-11-17,58.1,47.0,39.7,46.0,41.0,37.0,94,80,61,30.03,29.89,10,4,0,0.00
2013-11-18,59.5,50.2,40.7,51.0,44.4,37.0,93,81,66,30.08,29.98,12,3,0,0.17
2013-11-19,57.7,55.3,52.3,56.0,53.6,50.0,95,94,92,29.98,29.83,15,7,0,0.65
2013-11-20,57.6,52.6,49.1,56.0,51.4,48.0,96,95,94,29.86,29.81,10,3,0,0.10
2013-11-21,64.9,51.7,42.6,51.0,39.2,17.0,96,68,22,29.96,29.85,16,4,0,0.01
2013-11-22,78.7,57.9,41.1,39.0,23.8,6.0,56,32,9,29.99,29.87,15,5,0,0.00
2013-11-23,64.9,52.6,42.8,47.0,31.0,17.0,73,46,26,30.03,29.88,6,3,0,0.00
2013-11-24,62.5,48.1,39.6,49.0,35.1,24.0,85,63,33,30.19,30.02,10,3,0,0.00
2013-11-25,59.7,48.3,39.7,48.0,39.9,34.0,83,73,54,30.26,30.18,6,2,0,0.00
2013-11-26,60.1,50.7,44.4,46.0,41.8,39.0,83,72,55,30.20,29.97,5,2,0,0.00
2013-11-27,67.5,52.1,42.5,47.0,41.9,36.0,81,70,44,29.96,29.75,7,2,0,0.00
2013-11-28,67.0,52.3,44.9,49.0,41.9,38.0,79,69,46,30.02,29.80,7,2,0,0.00
2013-11-29,59.8,49.1,42.9,52.0,44.1,38.0,93,83,74,30.16,30.02,10,2,0,0.00
2013-11-30,60.2,50.3,43.1,53.0,46.7,40.0,93,87,73,30.24,30.15,9,3,0,0.00
2013-12-1,63.9,52.2,44.6,55.0,48.3,42.0,94,87,68,30.30,30.21,15,4,0,0.00
2013-12-2,58.7,52.9,47.4,53.0,50.6,46.0,95,92,77,30.23,29.93,17,5,0,0.09
2013-12-3,51.3,47.0,42.7,45.0,37.2,32.0,91,69,58,29.94,29.85,33,12,0,0.01
2013-12-4,49.4,41.7,32.3,36.0,30.5,27.0,80,65,45,30.05,29.93,21,7,0,0.00
2013-12-5,47.7,37.5,28.8,34.0,28.5,23.0,84,71,49,30.10,30.03,14,5,0,0.00
2013-12-6,48.9,41.6,31.2,46.0,35.8,24.0,94,81,59,30.10,29.87,15,4,0,0.44
2013-12-7,46.3,38.3,29.3,37.0,29.4,23.0,89,71,52,30.22,29.90,23,7,0,0.02
2013-12-8,47.2,35.7,28.8,31.0,26.0,23.0,80,69,46,30.28,30.20,10,3,0,0.00
2013-12-9,54.0,38.5,28.3,38.0,28.7,21.0,79,69,45,30.36,30.25,8,3,0,0.00
2013-12-10,52.4,40.0,33.7,43.0,33.8,28.0,86,79,58,30.35,30.14,12,3,0,0.00
2013-12-11,57.7,43.2,34.1,42.0,32.8,29.0,84,68,39,30.19,30.12,4,2,0,0.00
2013-12-12,56.6,44.7,37.0,46.0,36.9,29.0,89,75,48,30.20,30.13,7,3,0,0.00
2013-12-13,56.8,47.5,37.5,49.0,43.2,34.0,93,85,71,30.28,30.19,15,5,0,0.00
2013-12-14,52.0,44.5,37.3,49.0,42.2,36.0,95,92,82,30.35,30.26,7,1,0,0.01
2013-12-15,50.6,41.3,34.3,47.0,39.4,33.0,96,92,87,30.31,30.18,7,2,0,0.01
2013-12-16,62.1,48.3,40.0,49.0,39.6,35.0,90,73,56,30.18,30.06,5,2,0,0.00
2013-12-17,60.0,47.5,38.4,47.0,39.4,33.0,94,75,51,30.10,29.98,7,2,0,0.00
2013-12-18,53.0,46.6,39.1,48.0,44.2,37.0,95,91,83,29.98,29.82,26,8,0,0.01
2013-12-19,52.4,46.7,39.1,44.0,37.4,30.0,87,71,59,29.93,29.76,30,10,0,0.00
2013-12-20,53.0,46.6,38.8,46.0,36.3,25.0,91,68,45,30.03,29.92,20,7,0,0.00
2013-12-21,52.2,47.7,42.7,50.0,45.5,41.0,98,92,85,30.07,30.01,19,6,0,0.00
2013-12-22,61.2,47.4,39.8,50.0,42.6,38.0,94,84,56,30.22,30.05,7,2,0,0.01
2013-12-23,62.9,48.9,41.9,46.0,41.7,39.0,90,78,52,30.36,30.22,10,2,0,0.00
2013-12-24,58.5,46.9,40.8,50.0,43.5,39.0,95,88,73,30.30,30.16,11,2,0,0.00
2013-12-25,60.5,45.2,36.9,48.0,39.5,31.0,94,81,59,30.24,30.16,7,2,0,0.01
2013-12-26,63.9,49.7,39.8,44.0,34.9,29.0,72,58,41,30.19,30.10,4,1,0,0.00
2013-12-27,59.5,48.2,37.0,46.0,36.8,31.0,90,66,45,30.17,30.10,12,2,0,0.00
2013-12-28,58.6,46.0,36.0,48.0,39.5,32.0,94,79,62,30.11,30.01,9,2,0,0.00
2013-12-29,68.7,52.4,41.9,38.0,29.5,24.0,67,43,24,30.10,30.01,7,2,0,0.00
2013-12-30,62.1,49.1,40.4,43.0,33.6,24.0,86,57,38,30.18,30.09,6,2,0,0.00
2013-12-31,53.0,45.7,37.7,46.0,41.6,35.0,92,86,76,30.22,30.13,7,2,0,0.00
2014-1-1,52.6,43.4,36.3,47.0,40.8,35.0,95,90,79,30.16,30.09,8,2,0,0.01
2014-1-2,62.7,45.7,38.6,50.0,41.7,37.0,95,87,55,30.12,30.00,7,1,0,0.01